Flag for Canada Weather past 2 weeks in Chatham-Kent, Ontario, Canada

Now
74 °F

Mild.


Feels Like: 72 °F
Forecast: 68 / 74 °F
Wind: 7 mph from Southwest

Location: Erieau

Current Time: Sep 2, 2014 at 3:23:47 AM

Latest Report: Sep 2, 2014 at 3:00 AM


Visibility: N/A

Pressure: 29.82 "Hg

Humidity: 93%

Dew point: 72 °F

Location of Chatham-KentLocation

Historic Weather in Chatham-Kent — Graph

°F

Chatham-Kent temperature yesterday

Maximum temperature yesterday: 78 °F (at 6:00 PM)
Minimum temperature yesterday: 72 °F (at 1:00 AM)
Average temperature yesterday: 75 °F

Past Weeks' High & Low Weather Summary

 TemperatureHumidityPressure
High78 °F (Aug 26, 4:00 PM)100% (Aug 22, 10:00 AM)30.16 "Hg (Aug 22, 10:00 AM)
Low62 °F (Aug 28, 3:00 AM)55% (Aug 27, 4:00 PM)29.76 "Hg (Aug 19, 7:00 PM)
Average71 °F81%29.98 "Hg
* Reported Aug 18 2:00 AM — Sep 2 2:00 AM, Chatham-Kent, Weather by CustomWeather, © 2014

Note: Actual official high and low records may vary slightly from our data, if they occured in-between our weather recording intervals... More about our weather records

Advertising

Chatham-Kent weather history for previous 24 hours

 ConditionsComfort  
Time TempWeatherWind HumidityBarometerVisibility
2:00 AM
Sep 2
75 °FMild.5 mph91%29.83 "HgN/A
1:00 AM75 °FMild.7 mph90%29.83 "HgN/A
12:00 AM75 °FMild.5 mph87%29.83 "HgN/A
11:00 PM
Sep 1
76 °FMild.5 mph87%29.82 "HgN/A
10:00 PM74 °FMild.6 mph87%29.82 "HgN/A
9:00 PM74 °FMild.7 mph86%29.82 "HgN/A
8:00 PM77 °FWarm.12 mph82%29.78 "HgN/A
7:00 PM77 °FWarm.13 mph82%29.78 "HgN/A
6:00 PM78 °FWarm.10 mph81%29.77 "HgN/A
5:00 PM77 °FWarm.3 mph82%29.79 "HgN/A
4:00 PM77 °FWarm.1 mph82%29.80 "HgN/A
3:00 PM76 °FMild.8 mph84%29.83 "HgN/A
2:00 PM77 °FMild.9 mph85%29.86 "HgN/A
1:00 PM76 °FMild.12 mph85%29.88 "HgN/A
12:00 PM75 °FMild.12 mph87%29.89 "HgN/A
11:00 AM74 °FMild.15 mph91%29.90 "HgN/A
10:00 AM74 °FMild.13 mph92%29.91 "HgN/A
9:00 AM73 °FMild.13 mph93%29.92 "HgN/A
8:00 AM73 °FMild.10 mph94%29.93 "HgN/A
7:00 AM73 °FMild.7 mph95%29.92 "HgN/A
6:00 AM73 °FMild.7 mph95%29.92 "HgN/A
5:00 AM73 °FMild.8 mph94%29.92 "HgN/A
4:00 AM74 °FMild.10 mph93%29.92 "HgN/A
3:00 AM74 °FMild.10 mph92%29.93 "HgN/A
Weather by CustomWeather, © 2014

See weather overviewHow to use our weather pages